Check out our new BloomSky Weather System.

Active alerts

Houston, TX
  Details for Houston, TX Dense Fog Advisory


Thunder radar  blitzortung!


Rain radar more information rain snow radar


Visit our other weather sites:

Template documentation
and downloads

And another site



Weather Underground History page Text

Daily Summary for April 24, 2017 Units:  English    Metric   Both
« Previous Day
Next Day »
Daily Weekly Monthly Yearly Custom
  High: Low: Average:
Temperature: 81.7 °F 49.6 °F 67.1 °F
Dew Point: 59.0 °F 48.4 °F 52.9 °F
Humidity: 97 % 34 % 65 %
Wind Speed: 10.0 mph 0.0 mph 2 mph
Wind Gust: 18.0 mph - -
Wind:- - South
Pressure: 29.98 in 29.75 in -
Precipitation: 0.00 in    
Historical Graphs
 
 
Tabular Data for April 24, 2017
Time Temperature Dew Point Pressure Wind Wind Speed Wind Gust Humidity Rainfall Rate (Hourly)
00:01 56.1 °F 51.4 °F 29.98 in Calm   1.0 mph 84 % 0.00 in
00:06 56.1 °F 51.4 °F 29.98 in Calm     84 % 0.00 in
00:11 55.9 °F 51.4 °F 29.98 in Calm     85 % 0.00 in
00:16 55.8 °F 51.3 °F 29.98 in Calm     85 % 0.00 in
00:21 55.8 °F 51.6 °F 29.98 in Calm     86 % 0.00 in
00:26 55.6 °F 51.4 °F 29.98 in Calm     86 % 0.00 in
00:31 55.8 °F 51.6 °F 29.98 in Calm     86 % 0.00 in
00:36 55.8 °F 51.6 °F 29.98 in Calm     86 % 0.00 in
00:41 55.6 °F 51.4 °F 29.97 in Calm     86 % 0.00 in
00:46 55.2 °F 51.4 °F 29.98 in Calm     87 % 0.00 in
00:51 55.0 °F 51.3 °F 29.97 in Calm     87 % 0.00 in
00:56 54.9 °F 51.4 °F 29.97 in Calm     88 % 0.00 in
01:01 54.7 °F 51.3 °F 29.97 in Calm     88 % 0.00 in
01:06 54.5 °F 51.3 °F 29.97 in Calm     89 % 0.00 in
01:11 54.7 °F 51.4 °F 29.97 in Calm     89 % 0.00 in
01:16 54.3 °F 51.1 °F 29.97 in Calm     89 % 0.00 in
01:21 54.3 °F 51.4 °F 29.97 in Calm     90 % 0.00 in
01:26 54.1 °F 51.3 °F 29.97 in Calm     90 % 0.00 in
01:31 54.1 °F 51.3 °F 29.97 in Calm     90 % 0.00 in
01:36 54.0 °F 51.1 °F 29.97 in Calm     90 % 0.00 in
01:41 54.0 °F 51.1 °F 29.97 in Calm     90 % 0.00 in
01:46 54.0 °F 51.1 °F 29.97 in Calm     90 % 0.00 in
01:51 53.8 °F 50.9 °F 29.97 in Calm     90 % 0.00 in
01:56 53.6 °F 51.1 °F 29.97 in Calm     91 % 0.00 in
02:01 53.4 °F 50.9 °F 29.97 in Calm     91 % 0.00 in
02:06 53.2 °F 50.7 °F 29.98 in Calm     91 % 0.00 in
02:11 53.2 °F 50.7 °F 29.98 in Calm     91 % 0.00 in
02:16 53.4 °F 50.9 °F 29.98 in Calm   1.0 mph 91 % 0.00 in
02:21 53.2 °F 50.9 °F 29.97 in Calm   1.0 mph 92 % 0.00 in
02:26 53.4 °F 50.9 °F 29.97 in Calm   1.0 mph 91 % 0.00 in
02:31 53.2 °F 50.7 °F 29.97 in Calm     91 % 0.00 in
02:36 53.2 °F 50.9 °F 29.97 in Calm     92 % 0.00 in
02:41 53.1 °F 50.7 °F 29.97 in Calm     92 % 0.00 in
02:46 53.1 °F 50.7 °F 29.97 in Calm     92 % 0.00 in
02:51 53.1 °F 50.7 °F 29.97 in Calm     92 % 0.00 in
02:56 52.9 °F 50.5 °F 29.97 in Calm     92 % 0.00 in
03:01 53.1 °F 50.7 °F 29.96 in Calm   1.0 mph 92 % 0.00 in
03:06 53.1 °F 50.7 °F 29.95 in ENE 1.0 mph 1.0 mph 92 % 0.00 in
03:11 53.1 °F 50.7 °F 29.96 in Calm   1.0 mph 92 % 0.00 in
03:16 53.1 °F 50.7 °F 29.96 in Calm   1.0 mph 92 % 0.00 in
03:21 52.9 °F 50.5 °F 29.97 in Calm   1.0 mph 92 % 0.00 in
03:26 52.7 °F 50.4 °F 29.96 in Calm   1.0 mph 92 % 0.00 in
03:31 52.7 °F 50.4 °F 29.96 in Calm   1.0 mph 92 % 0.00 in
03:36 52.7 °F 50.4 °F 29.97 in Calm     92 % 0.00 in
03:41 52.5 °F 50.2 °F 29.96 in Calm     92 % 0.00 in
03:46 52.5 °F 50.2 °F 29.96 in Calm     92 % 0.00 in
03:51 52.3 °F 50.0 °F 29.96 in Calm     92 % 0.00 in
03:56 52.2 °F 49.8 °F 29.96 in Calm     92 % 0.00 in
04:01 52.2 °F 50.2 °F 29.96 in Calm     93 % 0.00 in
04:06 52.0 °F 49.6 °F 29.96 in Calm     92 % 0.00 in
04:11 51.8 °F 49.8 °F 29.96 in Calm     93 % 0.00 in
04:16 52.0 °F 50.0 °F 29.96 in Calm     93 % 0.00 in
04:21 51.6 °F 49.5 °F 29.96 in Calm     92 % 0.00 in
04:26 51.4 °F 49.3 °F 29.95 in Calm     92 % 0.00 in
04:31 51.3 °F 49.3 °F 29.95 in Calm     93 % 0.00 in
04:36 51.3 °F 49.3 °F 29.95 in Calm     93 % 0.00 in
04:39 51.1 °F 49.1 °F 29.95 in Calm     93 % 0.00 in
04:44 51.4 °F 49.8 °F 29.95 in Calm     94 % 0.00 in
04:49 51.4 °F 49.8 °F 29.95 in Calm     94 % 0.00 in
04:54 51.3 °F 49.3 °F 29.95 in Calm     93 % 0.00 in
04:59 51.3 °F 49.6 °F 29.95 in Calm     94 % 0.00 in
05:04 51.1 °F 49.5 °F 29.94 in Calm     94 % 0.00 in
05:09 51.1 °F 49.5 °F 29.94 in Calm     94 % 0.00 in
05:14 50.7 °F 49.1 °F 29.94 in Calm     94 % 0.00 in
05:19 51.1 °F 49.6 °F 29.94 in Calm   1.0 mph 95 % 0.00 in
05:24 51.1 °F 49.5 °F 29.95 in Calm   1.0 mph 94 % 0.00 in
05:29 50.9 °F 49.5 °F 29.95 in Calm   1.0 mph 95 % 0.00 in
05:34 50.7 °F 49.3 °F 29.95 in Calm     95 % 0.00 in
05:39 50.7 °F 49.3 °F 29.95 in Calm     95 % 0.00 in
05:44 50.5 °F 49.1 °F 29.95 in Calm     95 % 0.00 in
05:49 50.4 °F 48.9 °F 29.95 in Calm     95 % 0.00 in
05:54 50.4 °F 48.9 °F 29.96 in Calm     95 % 0.00 in
05:59 50.2 °F 48.7 °F 29.96 in Calm     95 % 0.00 in
06:04 50.2 °F 48.7 °F 29.95 in Calm     95 % 0.00 in
06:09 50.0 °F 48.6 °F 29.96 in Calm     95 % 0.00 in
06:14 50.2 °F 48.7 °F 29.96 in Calm     95 % 0.00 in
06:19 50.0 °F 48.6 °F 29.96 in Calm     95 % 0.00 in
06:24 50.0 °F 48.9 °F 29.95 in Calm     96 % 0.00 in
06:29 50.0 °F 48.9 °F 29.95 in Calm     96 % 0.00 in
06:34 50.0 °F 48.9 °F 29.96 in Calm     96 % 0.00 in
06:39 49.8 °F 48.4 °F 29.96 in Calm     95 % 0.00 in
06:44 49.6 °F 48.6 °F 29.96 in Calm     96 % 0.00 in
06:49 49.6 °F 48.6 °F 29.96 in Calm     96 % 0.00 in
06:54 49.6 °F 48.6 °F 29.96 in Calm     96 % 0.00 in
06:59 49.6 °F 48.6 °F 29.96 in Calm     96 % 0.00 in
07:04 50.2 °F 49.3 °F 29.96 in Calm     97 % 0.00 in
07:09 50.5 °F 49.5 °F 29.96 in Calm   1.0 mph 96 % 0.00 in
07:14 50.9 °F 50.0 °F 29.96 in Calm   1.0 mph 97 % 0.00 in
07:19 51.1 °F 50.0 °F 29.96 in Calm   1.0 mph 96 % 0.00 in
07:29 51.8 °F 50.9 °F 29.96 in Calm   1.0 mph 97 % 0.00 in
07:39 53.6 °F 52.5 °F 29.96 in Calm   1.0 mph 96 % 0.00 in
07:41 54.0 °F 52.9 °F 29.96 in Calm   1.0 mph 96 % 0.00 in
07:46 54.9 °F 53.8 °F 29.97 in Calm   1.0 mph 96 % 0.00 in
07:51 55.4 °F 53.8 °F 29.97 in Calm   1.0 mph 94 % 0.00 in
07:56 55.4 °F 53.1 °F 29.97 in Calm   1.0 mph 92 % 0.00 in
08:01 56.1 °F 53.8 °F 29.97 in Calm   1.0 mph 92 % 0.00 in
08:06 57.2 °F 54.9 °F 29.97 in Calm   1.0 mph 92 % 0.00 in
08:11 58.1 °F 55.2 °F 29.97 in Calm   1.0 mph 90 % 0.00 in
08:17 58.5 °F 54.7 °F 29.97 in Calm   1.0 mph 87 % 0.00 in
08:22 59.2 °F 55.0 °F 29.97 in North 1.0 mph 2.0 mph 86 % 0.00 in
08:27 59.9 °F 54.7 °F 29.97 in North 1.0 mph 3.0 mph 83 % 0.00 in
08:32 60.4 °F 54.3 °F 29.97 in WNW 1.0 mph 3.0 mph 80 % 0.00 in
08:37 61.0 °F 54.5 °F 29.97 in Calm   3.0 mph 79 % 0.00 in
08:42 61.5 °F 54.3 °F 29.97 in NNW 1.0 mph 3.0 mph 77 % 0.00 in
08:47 62.8 °F 55.4 °F 29.97 in Calm   3.0 mph 77 % 0.00 in
08:52 64.2 °F 56.1 °F 29.97 in Calm   2.0 mph 75 % 0.00 in
08:57 65.7 °F 56.8 °F 29.97 in NNW 1.0 mph 1.0 mph 73 % 0.00 in
09:02 66.2 °F 56.5 °F 29.97 in Calm   1.0 mph 71 % 0.00 in
09:07 67.3 °F 57.2 °F 29.98 in Calm   2.0 mph 70 % 0.00 in
09:12 68.2 °F 57.6 °F 29.98 in NNE 1.0 mph 2.0 mph 69 % 0.00 in
09:17 68.7 °F 56.1 °F 29.98 in Calm   2.0 mph 64 % 0.00 in
09:22 68.9 °F 57.0 °F 29.98 in Calm   2.0 mph 66 % 0.00 in
09:27 70.0 °F 57.2 °F 29.98 in North 1.0 mph 2.0 mph 64 % 0.00 in
09:32 70.7 °F 55.2 °F 29.98 in Calm   2.0 mph 58 % 0.00 in
09:37 71.1 °F 54.1 °F 29.98 in ENE 1.0 mph 2.0 mph 55 % 0.00 in
09:42 71.2 °F 53.2 °F 29.98 in East 1.0 mph 2.0 mph 53 % 0.00 in
09:47 72.0 °F 54.9 °F 29.98 in NNW 2.0 mph 2.0 mph 55 % 0.00 in
09:52 72.1 °F 55.6 °F 29.98 in ESE 3.0 mph 3.0 mph 56 % 0.00 in
09:57 72.0 °F 53.4 °F 29.97 in ESE 2.0 mph 3.0 mph 52 % 0.00 in
10:02 71.8 °F 52.2 °F 29.98 in SE 2.0 mph 4.0 mph 50 % 0.00 in
10:07 71.8 °F 51.6 °F 29.97 in Calm   4.0 mph 49 % 0.00 in
10:12 72.1 °F 52.5 °F 29.97 in East 3.0 mph 4.0 mph 50 % 0.00 in
10:17 72.1 °F 53.1 °F 29.97 in SE 3.0 mph 5.0 mph 51 % 0.00 in
10:22 72.1 °F 53.1 °F 29.97 in Calm   5.0 mph 51 % 0.00 in
10:27 72.5 °F 51.1 °F 29.97 in SSW 1.0 mph 6.0 mph 47 % 0.00 in
10:32 72.1 °F 50.7 °F 29.97 in SW 1.0 mph 8.0 mph 47 % 0.00 in
10:37 72.5 °F 50.5 °F 29.97 in ENE 2.0 mph 8.0 mph 46 % 0.00 in
10:42 72.5 °F 52.3 °F 29.96 in NE 2.0 mph 8.0 mph 49 % 0.00 in
10:47 72.7 °F 51.3 °F 29.96 in ESE 1.0 mph 7.0 mph 47 % 0.00 in
10:52 72.7 °F 51.8 °F 29.96 in Calm   4.0 mph 48 % 0.00 in
10:57 73.2 °F 51.3 °F 29.96 in East 4.0 mph 4.0 mph 46 % 0.00 in
11:02 72.9 °F 50.9 °F 29.96 in ESE 5.0 mph 9.0 mph 46 % 0.00 in
11:07 72.7 °F 51.8 °F 29.96 in SSE 1.0 mph 9.0 mph 48 % 0.00 in
11:12 73.6 °F 51.4 °F 29.96 in ESE 2.0 mph 9.0 mph 46 % 0.00 in
11:17 73.6 °F 52.2 °F 29.96 in SSE 1.0 mph 9.0 mph 47 % 0.00 in
11:22 74.7 °F 53.6 °F 29.96 in SW 1.0 mph 9.0 mph 48 % 0.00 in
11:27 75.0 °F 52.9 °F 29.96 in ESE 2.0 mph 9.0 mph 46 % 0.00 in
11:32 74.7 °F 52.0 °F 29.96 in SSE 3.0 mph 8.0 mph 45 % 0.00 in
11:37 74.5 °F 51.1 °F 29.96 in ESE 3.0 mph 8.0 mph 44 % 0.00 in
11:42 73.9 °F 50.7 °F 29.95 in NNW 1.0 mph 7.0 mph 44 % 0.00 in
11:47 73.8 °F 52.9 °F 29.94 in SSE 1.0 mph 7.0 mph 48 % 0.00 in
11:52 74.3 °F 51.6 °F 29.94 in NNW 3.0 mph 5.0 mph 45 % 0.00 in
11:57 74.7 °F 53.1 °F 29.94 in SE 1.0 mph 6.0 mph 47 % 0.00 in
12:02 74.5 °F 52.3 °F 29.94 in Calm   6.0 mph 46 % 0.00 in
12:07 74.8 °F 53.2 °F 29.93 in SSE 1.0 mph 6.0 mph 47 % 0.00 in
12:12 75.4 °F 53.2 °F 29.93 in SSW 4.0 mph 7.0 mph 46 % 0.00 in
12:17 75.7 °F 52.9 °F 29.93 in SSE 4.0 mph 8.0 mph 45 % 0.00 in
12:22 76.1 °F 52.0 °F 29.93 in South 1.0 mph 8.0 mph 43 % 0.00 in
12:27 76.5 °F 50.4 °F 29.92 in NNE 1.0 mph 8.0 mph 40 % 0.00 in
12:32 76.1 °F 52.0 °F 29.92 in NE 1.0 mph 8.0 mph 43 % 0.00 in
12:37 76.6 °F 51.3 °F 29.92 in SW 4.0 mph 4.0 mph 41 % 0.00 in
12:42 76.8 °F 50.0 °F 29.92 in ESE 6.0 mph 6.0 mph 39 % 0.00 in
12:47 76.6 °F 52.5 °F 29.92 in South 1.0 mph 9.0 mph 43 % 0.00 in
12:52 76.8 °F 50.0 °F 29.92 in SSW 1.0 mph 9.0 mph 39 % 0.00 in
12:57 76.6 °F 51.3 °F 29.91 in North 2.0 mph 9.0 mph 41 % 0.00 in
13:02 76.6 °F 52.5 °F 29.91 in SSW 2.0 mph 7.0 mph 43 % 0.00 in
13:07 77.5 °F 52.0 °F 29.91 in Calm   4.0 mph 41 % 0.00 in
13:12 78.4 °F 51.4 °F 29.90 in SSE 4.0 mph 4.0 mph 39 % 0.00 in
13:17 77.9 °F 50.2 °F 29.90 in SSE 5.0 mph 8.0 mph 38 % 0.00 in
13:22 77.7 °F 53.4 °F 29.89 in SW 1.0 mph 8.0 mph 43 % 0.00 in
13:27 78.1 °F 52.5 °F 29.89 in WSW 1.0 mph 8.0 mph 41 % 0.00 in
13:32 78.4 °F 52.2 °F 29.89 in West 1.0 mph 7.0 mph 40 % 0.00 in
13:33 78.4 °F 52.2 °F 29.89 in SSW 2.0 mph 7.0 mph 40 % 0.00 in
13:38 78.8 °F 54.5 °F 29.88 in Calm   7.0 mph 43 % 0.00 in
13:43 79.2 °F 54.1 °F 29.88 in SW 3.0 mph 5.0 mph 42 % 0.00 in
13:48 79.3 °F 52.9 °F 29.88 in Calm   4.0 mph 40 % 0.00 in
13:53 79.2 °F 51.4 °F 29.87 in SE 1.0 mph 6.0 mph 38 % 0.00 in
13:58 78.8 °F 51.8 °F 29.87 in ESE 3.0 mph 6.0 mph 39 % 0.00 in
14:03 78.6 °F 52.3 °F 29.87 in SSE 2.0 mph 6.0 mph 40 % 0.00 in
14:08 78.6 °F 50.9 °F 29.87 in Calm   8.0 mph 38 % 0.00 in
14:13 78.6 °F 51.6 °F 29.86 in SSE 4.0 mph 8.0 mph 39 % 0.00 in
14:18 78.4 °F 51.4 °F 29.86 in WNW 2.0 mph 8.0 mph 39 % 0.00 in
14:23 78.6 °F 53.6 °F 29.86 in SSE 2.0 mph 7.0 mph 42 % 0.00 in
14:28 79.2 °F 53.4 °F 29.86 in ESE 7.0 mph 8.0 mph 41 % 0.00 in
14:33 79.3 °F 52.2 °F 29.86 in South 4.0 mph 8.0 mph 39 % 0.00 in
14:38 79.2 °F 51.4 °F 29.86 in ENE 1.0 mph 8.0 mph 38 % 0.00 in
14:43 78.8 °F 50.4 °F 29.85 in SE 1.0 mph 8.0 mph 37 % 0.00 in
14:48 79.5 °F 50.9 °F 29.85 in SE 4.0 mph 8.0 mph 37 % 0.00 in
14:54 79.5 °F 51.6 °F 29.85 in SW 1.0 mph 8.0 mph 38 % 0.00 in
14:59 79.3 °F 48.6 °F 29.84 in East 6.0 mph 8.0 mph 34 % 0.00 in
15:04 79.2 °F 51.4 °F 29.84 in SSE 3.0 mph 8.0 mph 38 % 0.00 in
15:09 79.5 °F 51.6 °F 29.83 in SSW 7.0 mph 8.0 mph 38 % 0.00 in
15:14 80.1 °F 54.9 °F 29.83 in SE 2.0 mph 8.0 mph 42 % 0.00 in
15:19 80.1 °F 51.4 °F 29.83 in SSE 4.0 mph 8.0 mph 37 % 0.00 in
15:24 79.9 °F 51.3 °F 29.83 in ESE 8.0 mph 8.0 mph 37 % 0.00 in
15:29 80.1 °F 52.2 °F 29.82 in ESE 4.0 mph 11.0 mph 38 % 0.00 in
15:34 80.1 °F 51.4 °F 29.82 in South 5.0 mph 11.0 mph 37 % 0.00 in
15:39 80.2 °F 52.3 °F 29.81 in ENE 3.0 mph 11.0 mph 38 % 0.00 in
15:44 80.6 °F 52.0 °F 29.81 in SSE 3.0 mph 9.0 mph 37 % 0.00 in
15:49 80.8 °F 52.2 °F 29.81 in South 4.0 mph 9.0 mph 37 % 0.00 in
15:54 80.4 °F 51.8 °F 29.81 in SSE 4.0 mph 10.0 mph 37 % 0.00 in
15:59 80.8 °F 52.2 °F 29.81 in Calm   10.0 mph 37 % 0.00 in
16:04 80.8 °F 52.9 °F 29.81 in SSW 6.0 mph 10.0 mph 38 % 0.00 in
16:09 80.4 °F 53.2 °F 29.80 in SSW 6.0 mph 9.0 mph 39 % 0.00 in
16:14 81.0 °F 53.6 °F 29.80 in WSW 1.0 mph 10.0 mph 39 % 0.00 in
16:19 81.7 °F 52.9 °F 29.80 in South 2.0 mph 10.0 mph 37 % 0.00 in
16:24 81.7 °F 55.0 °F 29.79 in SW 3.0 mph 10.0 mph 40 % 0.00 in
16:29 81.3 °F 53.2 °F 29.79 in SW 3.0 mph 8.0 mph 38 % 0.00 in
16:34 81.1 °F 53.8 °F 29.78 in SW 2.0 mph 8.0 mph 39 % 0.00 in
16:39 81.3 °F 53.2 °F 29.78 in SE 3.0 mph 8.0 mph 38 % 0.00 in
16:44 81.0 °F 52.9 °F 29.78 in SSW 8.0 mph 8.0 mph 38 % 0.00 in
16:49 80.4 °F 53.2 °F 29.78 in ESE 1.0 mph 10.0 mph 39 % 0.00 in
16:54 81.0 °F 53.6 °F 29.78 in SE 3.0 mph 10.0 mph 39 % 0.00 in
16:59 81.3 °F 53.2 °F 29.78 in SSE 4.0 mph 10.0 mph 38 % 0.00 in
17:04 81.1 °F 53.1 °F 29.77 in NE 1.0 mph 8.0 mph 38 % 0.00 in
17:09 81.3 °F 53.2 °F 29.78 in South 4.0 mph 8.0 mph 38 % 0.00 in
17:14 81.3 °F 54.0 °F 29.78 in SE 7.0 mph 12.0 mph 39 % 0.00 in
17:19 81.1 °F 53.1 °F 29.77 in SSW 7.0 mph 12.0 mph 38 % 0.00 in
17:24 81.1 °F 53.1 °F 29.77 in South 9.0 mph 12.0 mph 38 % 0.00 in
17:29 80.8 °F 52.2 °F 29.77 in SSW 3.0 mph 10.0 mph 37 % 0.00 in
17:34 80.8 °F 52.9 °F 29.77 in SSW 6.0 mph 10.0 mph 38 % 0.00 in
17:39 80.8 °F 52.9 °F 29.77 in SSW 1.0 mph 10.0 mph 38 % 0.00 in
17:44 80.6 °F 52.0 °F 29.76 in SSW 6.0 mph 8.0 mph 37 % 0.00 in
17:49 80.2 °F 52.3 °F 29.77 in SSE 4.0 mph 12.0 mph 38 % 0.00 in
17:54 80.1 °F 52.9 °F 29.76 in South 1.0 mph 12.0 mph 39 % 0.00 in
17:59 80.2 °F 53.1 °F 29.77 in SSW 4.0 mph 12.0 mph 39 % 0.00 in
18:04 80.2 °F 52.3 °F 29.76 in SSE 3.0 mph 10.0 mph 38 % 0.00 in
18:09 80.2 °F 53.1 °F 29.76 in SSW 8.0 mph 8.0 mph 39 % 0.00 in
18:14 80.1 °F 52.9 °F 29.76 in SW 4.0 mph 9.0 mph 39 % 0.00 in
18:19 79.9 °F 52.7 °F 29.75 in East 5.0 mph 9.0 mph 39 % 0.00 in
18:24 80.1 °F 52.9 °F 29.75 in SE 4.0 mph 9.0 mph 39 % 0.00 in
18:29 80.1 °F 52.9 °F 29.76 in South 4.0 mph 9.0 mph 39 % 0.00 in
18:34 79.9 °F 54.1 °F 29.76 in SSE 5.0 mph 9.0 mph 41 % 0.00 in
18:39 79.9 °F 53.4 °F 29.75 in ESE 2.0 mph 9.0 mph 40 % 0.00 in
18:44 79.7 °F 54.0 °F 29.75 in SSW 5.0 mph 9.0 mph 41 % 0.00 in
18:50 79.3 °F 53.6 °F 29.75 in WSW 4.0 mph 9.0 mph 41 % 0.00 in
18:55 79.2 °F 52.7 °F 29.75 in SSW 4.0 mph 8.0 mph 40 % 0.00 in
19:00 78.8 °F 53.1 °F 29.75 in South 6.0 mph 11.0 mph 41 % 0.00 in
19:05 78.6 °F 52.9 °F 29.75 in SE 4.0 mph 11.0 mph 41 % 0.00 in
19:10 78.4 °F 53.4 °F 29.75 in SSW 4.0 mph 11.0 mph 42 % 0.00 in
19:15 78.1 °F 53.1 °F 29.75 in SSW 4.0 mph 11.0 mph 42 % 0.00 in
19:20 77.7 °F 52.9 °F 29.75 in South 5.0 mph 11.0 mph 42 % 0.00 in
19:25 77.4 °F 53.8 °F 29.75 in SSW 6.0 mph 9.0 mph 44 % 0.00 in
19:30 77.0 °F 53.4 °F 29.75 in South 3.0 mph 8.0 mph 44 % 0.00 in
19:35 76.5 °F 53.6 °F 29.75 in SE 4.0 mph 9.0 mph 45 % 0.00 in
19:40 76.3 °F 54.5 °F 29.75 in SE 9.0 mph 9.0 mph 47 % 0.00 in
19:45 75.9 °F 58.1 °F 29.75 in SSE 7.0 mph 11.0 mph 54 % 0.00 in
19:50 75.2 °F 58.5 °F 29.75 in South 7.0 mph 11.0 mph 56 % 0.00 in
19:55 74.7 °F 58.8 °F 29.75 in South 10.0 mph 13.0 mph 58 % 0.00 in
20:00 74.3 °F 58.6 °F 29.75 in South 5.0 mph 13.0 mph 58 % 0.00 in
20:05 73.9 °F 58.6 °F 29.75 in South 5.0 mph 13.0 mph 59 % 0.00 in
20:10 73.6 °F 58.8 °F 29.75 in South 3.0 mph 13.0 mph 60 % 0.00 in
20:15 73.4 °F 58.6 °F 29.75 in South 8.0 mph 12.0 mph 60 % 0.00 in
20:16 73.4 °F 58.6 °F 29.75 in SSW 4.0 mph 12.0 mph 60 % 0.00 in
20:21 73.2 °F 59.0 °F 29.75 in SE 4.0 mph 12.0 mph 61 % 0.00 in
20:26 72.9 °F 58.6 °F 29.75 in SE 2.0 mph 10.0 mph 61 % 0.00 in
20:31 72.7 °F 58.5 °F 29.75 in SE 3.0 mph 9.0 mph 61 % 0.00 in
20:36 72.5 °F 58.8 °F 29.75 in SSE 2.0 mph 9.0 mph 62 % 0.00 in
20:41 72.3 °F 58.6 °F 29.75 in South 5.0 mph 9.0 mph 62 % 0.00 in
20:46 72.1 °F 58.8 °F 29.75 in SSE 4.0 mph 9.0 mph 63 % 0.00 in
20:51 72.0 °F 58.6 °F 29.75 in South 3.0 mph 9.0 mph 63 % 0.00 in
20:56 71.8 °F 58.5 °F 29.75 in South 3.0 mph 8.0 mph 63 % 0.00 in
21:01 71.4 °F 58.6 °F 29.75 in SSE 4.0 mph 8.0 mph 64 % 0.00 in
21:06 71.4 °F 58.1 °F 29.75 in SSE 5.0 mph 9.0 mph 63 % 0.00 in
21:11 71.2 °F 57.9 °F 29.75 in SE 3.0 mph 12.0 mph 63 % 0.00 in
21:16 71.1 °F 57.7 °F 29.75 in SSW 7.0 mph 12.0 mph 63 % 0.00 in
21:21 71.1 °F 57.7 °F 29.75 in SW 6.0 mph 18.0 mph 63 % 0.00 in
21:26 70.9 °F 57.7 °F 29.75 in SE 5.0 mph 18.0 mph 63 % 0.00 in
21:31 70.5 °F 57.4 °F 29.75 in SSE 3.0 mph 18.0 mph 63 % 0.00 in
21:36 70.3 °F 57.2 °F 29.75 in SW 3.0 mph 10.0 mph 63 % 0.00 in
21:41 70.2 °F 57.0 °F 29.75 in SSE 9.0 mph 9.0 mph 63 % 0.00 in
21:46 70.2 °F 57.0 °F 29.75 in SE 3.0 mph 11.0 mph 63 % 0.00 in
21:51 70.0 °F 56.8 °F 29.75 in South 6.0 mph 12.0 mph 63 % 0.00 in
21:56 70.0 °F 56.8 °F 29.75 in SE 3.0 mph 13.0 mph 63 % 0.00 in
22:01 69.6 °F 56.8 °F 29.75 in SSE 8.0 mph 13.0 mph 64 % 0.00 in
22:06 69.4 °F 56.7 °F 29.76 in SSE 2.0 mph 13.0 mph 64 % 0.00 in
22:11 69.1 °F 56.8 °F 29.76 in SSE 4.0 mph 9.0 mph 65 % 0.00 in
22:17 68.9 °F 56.7 °F 29.76 in SE 2.0 mph 9.0 mph 65 % 0.00 in
22:22 68.7 °F 56.8 °F 29.76 in SE 4.0 mph 8.0 mph 66 % 0.00 in
22:27 68.7 °F 56.8 °F 29.76 in SSE 7.0 mph 9.0 mph 66 % 0.00 in
22:32 68.5 °F 56.7 °F 29.76 in WSW 3.0 mph 9.0 mph 66 % 0.00 in
22:37 68.4 °F 57.0 °F 29.76 in SSE 2.0 mph 9.0 mph 67 % 0.00 in
22:42 68.4 °F 57.0 °F 29.76 in South 4.0 mph 9.0 mph 67 % 0.00 in
22:47 68.2 °F 56.8 °F 29.76 in SSE 2.0 mph 9.0 mph 67 % 0.00 in
22:52 68.0 °F 57.0 °F 29.76 in South 2.0 mph 9.0 mph 68 % 0.00 in
22:57 67.8 °F 57.2 °F 29.76 in East 4.0 mph 8.0 mph 69 % 0.00 in
23:02 67.6 °F 57.0 °F 29.76 in South 3.0 mph 8.0 mph 69 % 0.00 in
23:07 67.6 °F 57.0 °F 29.76 in South 6.0 mph 8.0 mph 69 % 0.00 in
23:12 67.6 °F 57.6 °F 29.75 in SSW 2.0 mph 8.0 mph 70 % 0.00 in
23:17 67.5 °F 57.4 °F 29.76 in SW 3.0 mph 8.0 mph 70 % 0.00 in
23:22 67.3 °F 57.6 °F 29.75 in South 3.0 mph 8.0 mph 71 % 0.00 in
23:27 67.3 °F 57.6 °F 29.75 in SSW 2.0 mph 6.0 mph 71 % 0.00 in
23:32 67.3 °F 57.6 °F 29.75 in SSE 3.0 mph 6.0 mph 71 % 0.00 in
23:37 67.1 °F 57.4 °F 29.75 in SSE 2.0 mph 6.0 mph 71 % 0.00 in
23:42 66.9 °F 57.6 °F 29.75 in SSE 2.0 mph 6.0 mph 72 % 0.00 in
23:47 66.7 °F 57.4 °F 29.75 in SSE 2.0 mph 5.0 mph 72 % 0.00 in
23:52 66.7 °F 57.7 °F 29.75 in SSW 2.0 mph 6.0 mph 73 % 0.00 in
23:57 66.7 °F 57.7 °F 29.75 in South 3.0 mph 6.0 mph 73 % 0.00 in
Spring, Texas: Villages of Bridgestone
Compliments of Weather Underground - 2.75 mb

Script developed by  Jim McMurry - jmcmurry@mwt.net Adapted for the template by  Wim van der Kuil - Leuven-Template.eu

You find our weather info also at:

UK Metoffice

WeatherCloud

Weather Underground

Mid-South Weather Network

AWEKAS

Citizen Weather Observer Program (CWOP)

HAMweather, WeatherForYou, PWS Weather

Equipment we use:

Weather-station
Davis Vantage Vue

Weather-program
Meteohub

Weather-server
Debian 7.9 x86 (Guest)

Provider
DreamHost

Davis Vantage Vue

Meteohub

Debian 7.9 x86 (Guest)

DreamHost